OBJECT F, 63215

Orbit data source: Space-Track

You're viewing an Uncataloged Satellite

Recently launched and/or uncataloged satellites may have evolving metadata. Metadata may include but not limited to: Owner, Maufacturer, Bus, Motor, and Mission.

OBJECT F, 63215 is a satellite in SSO that was launched on Sat, 15 Mar 2025 UTC via an FALCON 9 launch vehicle from the Air Force Western Test Range (AFWTR). Unknown objects in Earth's orbit typically refer to objects detected orbiting the Earth but have not yet been identified or cataloged. These objects could be anything from previously untracked satellites, spent rocket stages, debris from satellite collisions, or even natural meteoroids temporarily captured by Earth's gravity.

Loading next visibility...
Identifier
63215, 2025-052F
Orbit
SSO
Country
Flag of TBDTBD
Related business
None
Manufacturer
Unknown
Mission
Operational Amateur Communications
Bus & Motor
Unknown
Mass
Unknown
Launch date (UTC)
2025-03-15 (7 months ago)
Launch vehicle
FALCON 9
Launch site
Air Force Western Test Range (AFWTR)
Object type
Unknown
Shape & HBR
Box, 0.1 m
Radar Cross Section
0.015 m², Small (<0.1 m²)

Expand to show TLE details & history
Last TLE update: 9 hours ago

TLE from 9 hours ago
0 OBJECT F
1 63215U 25052F   25299.64123671  .00019300  00000-0  78248-3 0  9993
2 63215  97.4120 191.8572 0002119 163.3657 196.7650 15.24677069 34401
Epoch: 2025-10-26T15:23Z
TLE epoch observation values (Epoch: 2025-10-26T15:23:22.851Z)
Latitude
-0.00009°
Longitude
-74.24252°
Altitude
496.246 km
Speed
7.616 km/s
True Right ascension
12h 47m 25s
True Declination
0° 00' 00"
Sunlit
Object was in daylight at epoch
Visualization orbit readout
Latitude
Unknown
Longitude
Unknown
Altitude
Unknown
Speed
Unknown
Apparent Right ascension
Unknown
Apparent Declination
Unknown
Sunlit
N/A
Visualization observer readout
Local Sidereal Time
19:58:29
Azimuth
Unknown
Elevation
Unknown
Doppler factor
Unknown
Orbital elements
Apogee altitude
490.17 km
Perigee altitude
487.26 km
Semi-major axis
6,866.852 km
Eccentricity
0.00021
Inclination
97.412°
RAAN
191.8572°
Arg. of periapsis
163.3657°
True anomaly
196.758°
Mean anomaly
196.765°
Eccentric anomaly
196.7615°
Mean motion
3.81423 °/min
Orbital period
94.38 mins
BSTAR
0.00078248
Loading maneuver chart data...
Computing Atmospheric mass density...
Loading historical data...
Loading historical data...
Loading historical data...
Loading historical data...
Loading historical data...
Loading historical data...
Loading historical data...

Documentation

Showing up to 5 results
|